ARIANE 2 DEB, 33560

Orbit data source: Space-Track

ARIANE 2 DEB, 33560 is space debris in HEO originally from a launch on Fri, 27 Jan 1989 UTC launched from the French Guiana (FRGUI). Debris objects in space refer to the collection of defunct objects orbiting the Earth. Examples of debris include non-operational satellites, rocket bodies, and fragments generated from explosions, collisions, or faulty payload assembly.

Loading next visibility...
Identifier
33560, 1989-006BC
Orbit
HEO
Country
Flag of FRFR
Related business
Manufacturer
EADS/LV
Mission
Spacecraft
Bus & Motor
Unknown
Mass
Unknown
Launch date (UTC)
1989-01-27 (37 years ago)
Launch vehicle
Unknown
Launch site
French Guiana (FRGUI)
Object type
Payload
Rocket body
Debris
Shape & HBR
Unknown shape, 0.2 m
Radar Cross Section
Medium (>0.1 m² and <1 m²)

Expand to show TLE details & history
Last TLE update: 23 hours ago

TLE from 23 hours ago
0 ARIANE 2 DEB
1 33560U 89006BC  25348.67415789 -.00000190  00000-0  72611-3 0  9990
2 33560  10.6368  88.0996 7080268   9.5307   6.6007  2.25153600176702
Epoch: 2025-12-14T16:10Z
TLE epoch observation values (Epoch: 2025-12-14T16:10:47.241Z)
Latitude
9.18995°
Longitude
-179.15777°
Altitude
2,025.203 km
Speed
8.869 km/s
True Right ascension
09h 48m 29s
True Declination
9° 08' 39"
Sunlit
Object was in daylight at epoch
Visualization orbit readout
Latitude
Unknown
Longitude
Unknown
Altitude
Unknown
Speed
Unknown
Apparent Right ascension
Unknown
Apparent Declination
Unknown
Sunlit
N/A
Visualization observer readout
Local Sidereal Time
13:24:33
Azimuth
Unknown
Elevation
Unknown
Doppler factor
Unknown
Orbital elements
Apogee altitude
35,629.614 km
Perigee altitude
802.744 km
Semi-major axis
24,594.316 km
Eccentricity
0.70803
Inclination
10.6368°
RAAN
88.0996°
Arg. of periapsis
9.5307°
True anomaly
49.13794°
Mean anomaly
6.6007°
Eccentric anomaly
21.40774°
Mean motion
0.56272 °/min
Orbital period
639.75 mins
BSTAR
0.00072611
Loading maneuver chart data...
Computing Atmospheric mass density...
Loading historical data...
Loading historical data...
Loading historical data...
Loading historical data...
Loading historical data...
Loading historical data...
Loading historical data...

Documentation

Showing up to 5 results
|